Weather Roundup
Issued by NWS Chicago, IL

Home | Current Version | Previous Version | Text Only | Print | Product List | Glossary On
Versions: 1 2 3 4 5 6 7 8 9 10 11 12 13 14 15 16 17 18 19 20 21 22 23 24 25 26 27 28 29 30 31 32 33 34 35 36 37 38 39 40 41 42 43 44 45 46 47 48 49 50
000
NZUS59 KLOT 251809
HRRLOT

CHICAGO AREA WEATHER ROUNDUP
NATIONAL WEATHER SERVICE CHICAGO/ROMEOVILLE IL
100 PM CDT MON SEP 25 2017

NOTE: "FAIR" INDICATES FEW OR NO CLOUDS BELOW 12,000 FEET WITH NO
SIGNIFICANT WEATHER AND/OR OBSTRUCTIONS TO VISIBILITY.

* THESE STATIONS ARE NOT UNDER NWS QUALITY CONTROL. THEY ALSO MAY NOT
  REPORT WEATHER SUCH AS PRECIPITATION OR FOG.

ILZ005-006-012>014-019>023-251900-
NORTHEAST ILLINOIS

CITY           SKY/WX    TMP DP  RH WIND       PRES   REMARKS
OHARE          MOSUNNY   90  56  31 VRB5      29.97F HX  88
6HR MIN TEMP:  67; 6HR MAX TEMP:  90;

MIDWAY         MOSUNNY   89  58  34 CALM      29.98F HX  88
6HR MIN TEMP:  71; 6HR MAX TEMP:  90;

AURORA         SUNNY     89  62  40 S6        29.99F HX  89
6HR MIN TEMP:  61; 6HR MAX TEMP:  89;

LANSING*       SUNNY     89  63  41 E7        29.99F HX  90
JOLIET*        SUNNY     91  60  35 CALM      29.98F HX  91
WAUKEGAN       MOSUNNY   84  65  52 E7        29.98F HX  86
6HR MIN TEMP:  66; 6HR MAX TEMP:  85;

DUPAGE AIRPORT SUNNY     88  61  40 S6        29.98F HX  88
6HR MIN TEMP:  61; 6HR MAX TEMP:  89;

WHEELING       SUNNY     91  58  32 S6        29.99F HX  90
6HR MIN TEMP:  66; 6HR MAX TEMP:  91;

MORRIS*        SUNNY     90  61  38 CALM      29.97F HX  90
LEWIS AIRPORT* SUNNY     90  59  35 SE5       29.99S HX  89
NORTHERLY ISL    N/A     79  66  64 E8          N/A  HX  81
$$

WIZ051-052-058>065-066-070>072-251900-
SOUTHEAST WISCONSIN

CITY           SKY/WX    TMP DP  RH WIND       PRES   REMARKS
MILWAUKEE      MOSUNNY   86  66  51 SE12      29.97F HX  88
6HR MIN TEMP:  70; 6HR MAX TEMP:  86;

KENOSHA*       SUNNY     89  65  44 E13       29.98F HX  91
RACINE*        SUNNY     84  66  54 S10       30.00F HX  86
WAUKESHA       MOSUNNY   88  55  33 CALM      29.99F HX  86
WEST BEND        N/A     88  55  33 SE6       29.98F HX  86
$$

INZ001>003-010>013-019-020-251900-
NORTHWEST INDIANA

CITY           SKY/WX    TMP DP  RH WIND       PRES   REMARKS
GARY*          PTSUNNY   90  46  22 SE7       30.00F HX  86
MICHIGAN CITY* NOT AVBL
RENSSELAER*    NOT AVBL
VALPARAISO     MOSUNNY   88  60  38 SE6       30.02F HX  87
$$

LMZ740>746-251900-
SOUTHERN LAKE MICHIGAN

STATION/POSITION TIME  SKY/WX   TEMP WIND        PRES    VSBY
                                AIR  DIR/SP/G
                 (UTC)          (F)  (DEG/KT/KT) (MB)    (MI)
HARRISON CRIB    1740            78  120/ 14/ 14   N/A
BURNHAM HARBOR   1800            79                N/A
CALUMET HARBOR   1748            82   70/  7/ 12 1014.9F
BURNS HARBOR     1740            80   10/  5/  6 1016.3F
MICHIGAN CITY    1740            84  140/  5/  7   N/A
$$

ABBREVIATIONS USED IN REMARKS
   TC - TEMPERATURE IN CELSIUS
  WCI - WIND CHILL INDEX
   HX - HEAT INDEX
  VSB - VISIBILITY
$$



USA.gov is the U.S. government's official web portal to all federal, state and local government web resources and services.